Regional Weather Roundup
Issued by NWS

Home | Current Version | Previous Version | Graphics & Text | Print | Product List | Glossary On
Versions: 1 2 3 4 5 6 7 8 9 10 11 12 13 14 15 16 17 18 19 20 21 22 23 24 25 26 27 28 29 30 31 32 33 34 35 36 37 38 39 40 41 42 43 44 45 46 47 48 49 50
000
ASUS43 KDTX 060810
RWRMI
MICHIGAN HOURLY REGIONAL WEATHER ROUNDUP
NATIONAL WEATHER SERVICE DETROIT/PONTIAC MI
400 AM EDT WED MAY 06 2015

NOTE: "FAIR" INDICATES FEW OR NO CLOUDS BELOW 12,000 FEET WITH NO
SIGNIFICANT WEATHER AND/OR OBSTRUCTION TO VISIBILITY.

MIZ047>049-052>055-059>063-066>070-074>076-081>083-060900-
SOUTHEAST LOWER MICHIGAN

CITY           SKY/WX    TMP DP  RH WIND       PRES   REMARKS
ADRIAN         CLOUDY    51  51 100 SE6       30.24S FOG
ALMA           CLOUDY    49  47  95 CALM      30.26S
ANN ARBOR      CLOUDY    51  50  96 NE6       30.24F
BAD AXE        PTCLDY    37  35  93 CALM      30.28S
CARO           PTCLDY    41  41  99 CALM      30.25F FOG
DETROIT CITY   CLOUDY    50  48  93 NE5       30.26S
DETROIT        HVY RAIN  52  50  93 N5        30.25S FOG
FLINT          CLOUDY    52  47  83 E5        30.26F
GROSSE ILE     HVY RAIN  52  48  87 NE5       30.23S
HILLSDALE      FOG       52  52 100 SE6       30.22S VSB 1/4
HOWELL         CLOUDY    51  51  99 E5        30.24F FOG

CITY           SKY/WX    TMP DP  RH WIND       PRES   REMARKS
JACKSON        CLOUDY    51  50  96 E5        30.23S FOG
LAMBERTVILLE   CLOUDY    52  50  93 E5        30.23F FOG
LANSING        CLOUDY    52  50  93 E5        30.25S
LAPEER         CLOUDY    45  45 100 CALM      30.26S FOG
MASON          CLOUDY    51  50  95 E3        30.24S FOG
MONROE         CLOUDY    52  52 100 NE3       30.23S FOG
PONTIAC        CLOUDY    50  45  83 E5        30.25S
PORT HOPE        N/A     41  38  89 E6        30.27F
PORT HURON     CLOUDY    41  41 100 CALM      30.27S FOG
TRI CITIES     MOCLDY    49  47  93 NE5       30.27S FOG
MIDLAND        FAIR      46  45  97 CALM      30.25F
TROY           CLOUDY    51  48  90 NE5       30.27S
SAGINAW HB     PTCLDY    45  45 100 CALM      30.26S FOG
$$
MIZ043>046-050>051-056>058-064>065-071>073-077>080-060900-
SOUTHWEST LOWER MICHIGAN

CITY           SKY/WX    TMP DP  RH WIND       PRES   REMARKS
BATTLE CREEK   CLOUDY    52  50  93 E3        30.23S FOG
BENTON HARBOR  FOG       52  52 100 E7        30.20S VSB 1
BIG RAPIDS     CLOUDY    51  42  72 SE3       30.25S
COLDWATER      CLOUDY    51  51  99 CALM      30.21F FOG
FREMONT        CLOUDY    52  43  72 E3        30.23F
HOLLAND        CLOUDY    53  51  93 E7        30.22F
GRAND RAPIDS   CLOUDY    53  50  89 E7        30.23F FOG
IONIA          CLOUDY    53  48  85 E5        30.24S
KALAMAZOO      CLOUDY    52  49  89 E5        30.22S FOG
LUDINGTON      CLOUDY    53  44  70 SE3       30.23F
MARSHALL       CLOUDY    50  50  99 CALM      30.23R FOG
MOUNT PLEASANT CLOUDY    48  45  88 NE3       30.25F
MUSKEGON       LGT RAIN  53  46  77 E7        30.22F
SOUTH HAVEN    PTCLDY    52  50  95 E5        30.21S FOG
$$
MIZ016>042-060900-
NORTHERN LOWER MICHIGAN

CITY           SKY/WX    TMP DP  RH WIND       PRES   REMARKS
ALPENA         PTCLDY    33  32  96 CALM      30.29S FOG
BEAVER ISLAND  CLEAR     39  34  80 SE6       30.25F
BELLAIRE       PTCLDY    41  36  83 CALM      30.26F
CADILLAC       CLOUDY    42  32  68 CALM      30.24F
CHARLEVOIX     PTCLDY    47  34  62 E5        30.28F
FRANKFORT      CLOUDY    46  32  57 CALM      30.24F
GAYLORD        PTCLDY    41  33  73 CALM      30.26F
GRAYLING       PTCLDY    35  31  87 CALM      30.28S
HARBOR SPRINGS PTCLDY    41  34  76 NE6       30.26F
HOUGHTON LAKE  MOCLDY    38  36  92 CALM      30.27F
MANISTEE       CLOUDY    46  39  76 CALM      30.25S
OSCODA         CLOUDY    33  33  98 CALM      30.28F FOG
PELLSTON       CLEAR     32  28  85 CALM      30.27F
ROGERS CITY    CLEAR     38  36  93 S3        30.28F
TRAVERSE CITY  MOCLDY    43  36  76 CALM      30.24F
$$
MIZ007>008-015-060900-
EASTERN UPPER MICHIGAN

CITY           SKY/WX    TMP DP  RH WIND       PRES   REMARKS
KINROSS        CLEAR     45  30  57 CALM      30.27S
MACKINAC ISLAN CLEAR     50  36  57 S7        30.26F
NEWBERRY       CLEAR     44  28  54 SW6       30.25S
S. S. MARIE    CLEAR     43  32  65 E5        30.26F
MUNISING         N/A     39  31  72 S5        30.23F
$$
MIZ004>006-011>014-085-060900-
CENTRAL UPPER MICHIGAN

CITY           SKY/WX    TMP DP  RH WIND       PRES   REMARKS
MANISTIQUE     CLEAR     37  29  73 E5        30.24F WCI  34
ESCANABA       PTCLDY    37  34  87 CALM      30.23F
MENOMINEE      CLOUDY    48  34  57 E5        30.22F
SAWYER-GWINN   CLEAR     37  29  72 CALM      30.24S
$$
MIZ001>003-009>011-084-060900-
WESTERN UPPER MICHIGAN

CITY           SKY/WX    TMP DP  RH WIND       PRES   REMARKS
IRON MOUNTAIN  MOCLDY    40  32  73 CALM      30.22F
HOUGHTON       CLEAR     49  29  46 S6        30.20F
COPPER HARBOR    N/A     53  28  38 SW9       30.19F
IRONWOOD       PTCLDY    52  28  40 E7        30.15F
$$

ABBREVIATIONS USED IN REMARKS
   TC - TEMPERATURE IN CELSIUS
  WCI - WIND CHILL INDEX
   HX - HEAT INDEX
  VSB - VISIBILITY



USA.gov is the U.S. government's official web portal to all federal, state and local government web resources and services.